Regional Weather Roundup
Issued by NWS Sioux Falls, SD

Home | Current Version | Previous Version | Graphics & Text | Print | Product List | Glossary On
Versions: 1 2 3 4 5 6 7 8 9 10 11 12 13 14 15 16 17 18 19 20 21 22 23 24 25 26 27 28 29 30 31 32 33 34 35 36 37 38 39 40 41 42 43 44 45 46 47 48 49 50
000
ASUS43 KFSD 221902
RWRFSD

WEATHER ROUNDUP FOR SE SOUTH DAKOTA/SW MINNESOTA/NW IOWA
NATIONAL WEATHER SERVICE SIOUX FALLS SD
200 PM CDT MON SEP 22 2014

NOTE: "FAIR" INDICATES FEW OR NO CLOUDS BELOW 12,000 FEET WITH NO
SIGNIFICANT WEATHER AND OR OBSTRUCTIONS TO VISIBILITY.


SDZ038>040-050-052>070-222000-
SOUTHEAST SOUTH DAKOTA

CITY           SKY/WX    TMP DP  RH WIND       PRES   REMARKS
CHAMBERLAIN    MOSUNNY   76  49  39 S14G23    30.12F
HURON          PTSUNNY   74  46  36 S14       30.14F
MADISON        FAIR      68  46  45 SW9       30.21F
MITCHELL       MOSUNNY   74  47  38 S16       30.18F
SIOUX FALLS    PTSUNNY   71  47  42 S13       30.22F
WINNER         CLOUDY    77  46  33 S22G30    30.11F
YANKTON        MOSUNNY   72  46  40 S14       30.21F
$$

MNZ071-072-080-081-089-090-097-098-222000-
SOUTHWEST MINNESOTA

CITY           SKY/WX    TMP DP  RH WIND       PRES   REMARKS
FAIRMONT       SUNNY     70  46  43 S8        30.25F
JACKSON        SUNNY     72  45  37 S6        30.25F
LUVERNE        SUNNY     72  45  37 SW8       30.23F
MARSHALL       SUNNY     72  45  37 SW8       30.19F
MONTEVIDEO     SUNNY     75  50  41 S3        30.19F
PIPESTONE      SUNNY     70  45  40 SW9       30.22F
REDWOOD FALLS  SUNNY     72  47  40 SW9       30.20F
TRACY          SUNNY     72  47  41 CALM      30.22F
WINDOM         SUNNY     72  46  40 SW10      30.23F
WORTHINGTON    SUNNY     70  46  43 SW9G16    30.24F
$$

IAZ001>003-012>014-020>022-031-032-NEZ013-014-SDZ071-222000-
NORTHWEST IOWA

CITY           SKY/WX    TMP DP  RH WIND       PRES   REMARKS
CHEROKEE       SUNNY     70  48  46 SW6       30.25F
DENISON        SUNNY     70  48  46 VRB7G14   30.25F
ESTHERVILLE    SUNNY     68  47  46 S5        30.25F
LE MARS        MOSUNNY   70  50  49 S9        30.25F
ORANGE CITY    MOSUNNY   72  45  37 SW12      30.24F
SHELDON        SUNNY     70  48  46 S8        30.23F
SIOUX CITY     MOSUNNY   72  49  44 SW10G20   30.25F
SPENCER        SUNNY     71  49  45 S12G20    30.25F
$$

ABBREVIATIONS USED IN REMARKS
   TC - TEMPERATURE IN CELSIUS
  WCI - WIND CHILL INDEX
   HX - HEAT INDEX
  VSB - VISIBILITY



USA.gov is the U.S. government's official web portal to all federal, state and local government web resources and services.